{"data":{"norad_id":67829,"intl_designator":"2026-033J","name":"STARLINK-36144","alt_names":[],"object_type":"PAYLOAD","status":"ACTIVE","operator":null,"country":"US","launch_date":"2026-02-16","launch_site_code":"AFETR","launch_vehicle":null,"mission":null,"orbit_class":"UNKNOWN","rcs_meters":null,"size_class":null,"mass_kg":null,"dimensions":null,"purposes":["comms"],"wikipedia_slug":null,"has_3d_model":false,"image_url":null,"decayed_at":null,"tle_current":{"epoch":"2026-09-19T07:31:53.035392Z","epoch_age_seconds":168987,"freshness":"FRESH","line1":"1 67829U 26033J   26262.31380828  .00011627  00000+0  43152-3 0  9991","line2":"2 67829  43.0016 253.8039 0001626 275.2887  84.7780 15.27567504 34285","mean_motion":15.27567504,"eccentricity":0.0001626,"inclination_deg":43.0016,"raan_deg":253.8039,"arg_perigee_deg":275.2887,"mean_anomaly_deg":84.778,"bstar":0.00043152,"rev_number":3428,"period_min":94.267519846377,"perigee_km":481.97087887079,"apogee_km":484.20214875748,"semimajor_km":6861.2235138141,"source":"CELESTRAK","updated_at":"2026-09-20T09:00:43.668683Z"}}}